Wind_Speed
45 45 46 47 46 47 47 46 46 46 46 45 45 45 44 44 44 43 43 43 43 43 43 43 43 43 44 44 44 44 45 45 45 45 46 46 47 46 46 45 46 46 46
43 44 45 46 46 46 46 46 46 46 46 44 45 44 44 44 44 44 43 43 43 43 43 44 43 43 43 43 43 43 43 44 44 44 45 46 47 47 46 45 45 46 47
42 43 45 45 45 45 45 45 46 46 45 45 45 44 44 44 44 43 43 42 43 43 43 44 44 44 43 44 43 43 43 43 44 45 45 46 46 46 45 46 45 46 47
39 41 42 44 45 45 45 45 45 46 45 44 45 45 44 44 44 44 44 43 43 43 43 44 44 44 44 45 44 43 43 44 44 44 44 44 44 45 45 45 46 46 46
36 38 40 41 42 43 44 44 44 44 44 44 45 46 45 45 44 44 44 44 44 43 43 43 43 44 44 43 43 43 42 42 43 44 44 44 43 44 44 45 45 45 44
35 36 38 39 41 42 42 43 43 43 44 44 44 44 45 45 45 45 45 44 44 44 43 43 44 44 43 43 42 42 42 42 42 42 43 43 43 43 44 44 44 44 44
34 35 37 39 40 40 41 41 43 43 43 43 44 45 45 45 44 45 45 43 43 43 43 43 43 43 43 42 42 43 42 41 42 42 42 41 41 41 42 42 42 43 43
33 34 35 37 38 38 39 41 42 43 44 44 44 45 45 45 45 45 44 45 44 44 44 44 43 42 42 42 42 42 41 41 42 41 41 41 41 40 41 41 41 42 42
31 31 32 33 35 37 38 40 41 42 43 43 44 44 45 45 45 45 45 45 44 44 43 43 43 41 41 42 41 41 42 42 42 41 41 41 40 39 39 40 40 40 39
30 31 31 32 34 36 37 38 39 40 41 41 42 42 44 44 45 44 45 44 43 42 42 42 42 42 42 42 41 41 41 40 40 40 39 39 38 38 38 39 39 38 38
30 31 31 32 33 34 35 36 37 38 39 40 41 41 42 43 43 42 42 42 41 41 40 41 40 41 41 40 39 39 38 38 37 37 37 37 37 37 37 38 37 37 37
28 29 29 30 31 32 33 34 35 36 36 37 38 37 38 39 40 40 40 40 40 40 39 38 38 38 38 37 37 36 35 35 35 35 36 36 36 36 36 37 37 36 36
25 26 27 28 28 29 30 31 32 33 34 34 34 34 35 36 37 37 38 38 38 38 37 37 37 37 36 36 35 35 34 34 34 35 34 33 34 35 36 36 36 36 36
25 25 25 26 26 28 29 29 30 31 32 32 33 33 34 34 34 35 36 36 37 36 35 35 35 35 34 35 34 34 34 34 33 32 32 32 33 34 34 34 34 34 34
24 24 25 25 25 26 27 27 28 28 30 31 31 32 32 32 32 33 33 34 34 33 33 33 33 32 32 33 33 33 33 32 32 32 32 32 32 32 32 33 33 33 33
24 23 23 24 24 24 24 24 25 26 27 29 30 30 29 30 30 31 31 31 31 32 32 32 31 31 30 31 32 32 32 31 31 31 31 31 31 32 32 32 32 31 31
22 22 22 22 23 23 23 23 24 25 25 26 28 28 28 29 29 29 29 29 30 30 30 30 30 30 30 30 31 31 31 31 31 31 30 30 30 30 30 29 29 29 29
21 21 22 22 22 22 22 22 23 24 25 25 26 26 26 27 28 29 29 29 29 29 29 29 29 30 30 30 30 30 30 30 30 29 29 28 28 27 27 26 27 27 26
20 20 20 20 21 22 22 23 23 23 24 25 25 25 25 26 26 27 28 28 28 28 28 28 29 29 30 29 29 28 28 28 28 27 27 26 25 25 25 24 24 24 24
20 19 19 19 20 20 21 22 22 22 23 23 23 24 24 25 25 26 27 27 27 27 28 28 27 27 27 27 27 26 26 26 25 24 24 23 22 22 22 22 22 22 21
20 20 20 19 19 19 19 20 20 21 21 21 21 21 22 22 23 24 25 25 26 26 26 26 26 26 26 26 26 25 25 24 23 22 22 21 21 21 21 20 19 19 19
20 20 20 19 19 19 19 19 19 19 19 19 19 20 21 21 22 23 23 23 24 24 25 25 26 25 25 24 24 23 23 22 22 21 21 20 19 19 18 18 17 17 17
19 18 18 19 19 19 19 19 19 19 19 19 19 19 20 21 21 22 22 23 23 23 22 23 24 24 24 23 22 21 21 20 19 19 19 18 17 16 16 16 15 15 14
17 17 17 17 18 18 17 17 17 18 18 17 17 18 18 18 19 20 21 21 22 22 21 21 22 22 21 20 20 19 19 18 18 17 16 16 15 15 15 15 14 13 13
16 17 17 17 17 17 17 17 17 17 16 16 17 17 17 17 18 19 19 19 20 20 20 20 20 19 19 18 18 18 18 18 17 16 16 16 15 15 14 13 13 12 12
15 15 16 16 16 16 16 15 16 16 16 16 16 16 16 16 17 17 17 17 17 18 18 18 18 18 18 18 18 18 18 17 17 16 16 15 15 14 14 13 12 11 12
Wind_Direction
249 249 249 250 251 251 250 251 250 250 252 254 254 254 255 256 257 258 259 260 261 263 264 263 264 266 267 268 269 271 271 270 270 270 273 274 275 277 278 279 279 281 282
249 249 249 250 250 250 250 250 250 250 251 254 255 254 254 255 256 257 259 260 261 263 264 264 264 265 267 269 270 271 271 270 271 272 273 274 275 277 278 278 280 281 283
250 250 250 250 249 248 249 250 251 250 251 253 254 254 254 255 256 257 259 261 263 264 264 265 265 265 267 268 269 271 271 270 271 272 273 274 275 278 278 280 281 283 285
250 250 250 250 250 249 249 251 252 251 250 251 252 253 254 255 257 258 260 262 263 265 265 265 266 266 267 268 269 271 272 272 272 273 274 275 277 277 279 282 283 283 285
254 252 251 250 250 250 251 252 251 251 250 251 252 253 254 255 256 257 259 261 263 264 265 265 266 266 266 268 269 271 273 274 274 274 274 275 276 277 279 283 284 285 285
256 254 252 250 250 251 252 252 251 250 250 251 253 253 253 254 255 257 258 261 263 264 265 266 266 266 268 268 269 270 272 274 274 274 275 276 276 278 280 283 285 286 286
258 256 254 252 252 252 252 252 251 250 250 251 253 253 253 254 255 257 258 261 263 264 265 265 265 266 268 269 269 271 272 274 275 275 277 277 278 279 281 283 285 287 287
258 256 256 255 253 253 252 252 251 249 250 252 254 254 255 255 256 258 259 260 263 263 264 264 264 265 267 269 270 272 273 275 277 276 276 278 278 279 281 283 286 287 288
259 257 258 257 256 254 253 253 251 250 251 253 253 254 255 256 256 257 259 260 261 261 262 263 263 265 268 269 270 274 276 276 277 277 278 278 278 279 281 283 286 287 287
261 261 260 258 256 255 254 253 251 250 251 253 254 255 256 256 256 257 257 259 261 261 261 262 264 265 268 268 271 274 276 276 277 277 278 278 278 279 282 284 286 287 288
263 262 260 258 258 256 255 253 251 252 254 255 255 256 257 257 257 256 256 257 259 260 260 261 261 264 267 268 271 273 276 276 276 276 277 278 279 280 282 284 286 287 287
265 262 260 260 259 258 256 253 254 255 256 256 257 257 257 257 256 255 255 255 256 258 259 260 261 263 266 269 271 273 274 275 275 275 275 277 279 280 281 282 284 286 287
270 265 263 263 262 260 258 256 255 257 256 255 256 257 257 255 253 253 253 254 255 257 259 260 262 263 266 268 270 272 274 275 275 276 276 277 279 281 282 283 283 284 286
271 269 268 267 266 264 262 259 258 257 255 255 256 256 256 254 252 252 253 254 255 257 259 260 262 263 266 268 270 272 273 274 275 275 276 277 279 281 282 283 283 284 287
270 269 266 266 266 264 262 260 258 257 256 255 255 256 255 253 254 253 252 254 255 257 258 259 261 262 264 267 269 271 273 273 273 275 277 279 280 282 283 284 284 285 287
271 271 270 268 267 265 262 260 258 258 257 256 255 256 254 254 254 253 252 252 254 256 257 259 260 260 263 267 269 271 272 272 274 277 279 279 280 283 285 285 286 286 287
273 272 271 271 268 263 262 263 262 260 258 256 256 255 255 255 253 252 251 252 253 255 257 258 258 259 263 266 268 269 270 272 273 276 278 280 281 283 284 285 286 287 289
275 274 272 270 268 265 264 264 263 261 260 258 257 255 255 254 253 253 253 253 253 255 255 256 258 261 263 266 268 269 271 272 273 275 278 279 280 281 282 285 287 288 290
278 276 273 272 270 267 265 266 265 263 261 259 256 256 255 255 255 255 254 253 254 255 255 257 260 262 263 266 268 269 270 272 273 275 278 279 279 280 282 284 288 290 290
278 275 273 272 270 270 268 267 266 264 262 257 255 255 255 256 255 254 253 254 255 256 257 259 262 264 264 266 267 268 270 272 273 275 277 279 279 280 281 284 288 290 292
278 276 274 271 270 269 269 268 266 266 263 258 258 257 256 256 256 255 255 255 256 258 259 261 263 264 265 267 267 268 269 271 270 271 274 276 277 279 280 283 286 289 292
277 274 273 272 271 269 269 269 269 264 259 258 258 257 256 257 257 255 256 258 259 259 259 261 262 263 265 265 266 267 267 267 268 270 271 273 275 277 279 281 283 286 291
278 275 274 273 273 273 274 272 267 261 259 260 260 259 260 259 258 258 257 258 258 258 258 260 261 261 262 263 264 264 264 265 267 267 267 269 272 275 275 278 282 287 292
280 276 274 274 274 274 274 272 266 263 261 260 258 258 259 259 258 258 258 256 255 256 257 258 260 260 260 259 259 260 260 262 265 266 264 265 268 272 274 275 278 285 291
280 277 274 274 275 275 273 270 268 265 263 261 259 259 259 260 261 261 260 258 256 255 256 257 258 258 257 258 259 257 258 259 261 262 261 262 265 268 272 273 276 279 286
281 281 278 276 275 274 272 270 266 265 264 262 260 260 261 262 264 264 262 260 258 256 255 255 255 254 254 257 258 257 258 257 257 258 260 262 264 264 266 271 274 278 285
Height
5600 5604 5607 5611 5614 5617 5619 5623 5626 5629 5632 5635 5638 5641 5644 5646 5649 5651 5653 5655 5657 5659 5660 5662 5663 5664 5665 5665 5664 5664 5664 5664 5665 5667 5667 5667 5666 5665 5664 5662 5660 5658 5656
5588 5592 5596 5599 5602 5605 5608 5611 5614 5617 5621 5624 5626 5629 5632 5635 5638 5640 5643 5645 5646 5648 5649 5650 5651 5652 5653 5653 5653 5653 5652 5652 5653 5654 5655 5655 5654 5653 5652 5650 5648 5646 5644
5577 5580 5584 5587 5591 5594 5597 5600 5603 5606 5609 5613 5615 5618 5621 5624 5627 5629 5632 5633 5635 5636 5638 5639 5640 5641 5642 5642 5642 5641 5641 5641 5641 5642 5643 5642 5642 5640 5639 5638 5635 5634 5631
5566 5569 5572 5576 5579 5583 5586 5589 5592 5595 5598 5601 5604 5607 5610 5613 5615 5618 5620 5622 5624 5625 5626 5628 5628 5629 5630 5631 5631 5630 5629 5629 5630 5630 5630 5630 5629 5628 5626 5625 5623 5621 5619
5557 5559 5562 5565 5568 5571 5574 5577 5580 5583 5586 5590 5593 5596 5599 5601 5604 5606 5609 5611 5612 5614 5615 5616 5617 5618 5618 5618 5619 5618 5618 5618 5617 5617 5617 5618 5617 5616 5614 5612 5611 5609 5607
5548 5550 5552 5555 5557 5560 5563 5565 5568 5572 5575 5578 5581 5584 5587 5590 5592 5595 5597 5600 5601 5602 5604 5605 5606 5606 5606 5607 5607 5607 5606 5606 5606 5605 5605 5605 5605 5604 5603 5601 5599 5597 5596
5539 5540 5542 5544 5547 5549 5551 5554 5557 5560 5563 5566 5569 5572 5575 5578 5580 5583 5585 5588 5590 5591 5592 5593 5595 5595 5595 5595 5596 5595 5595 5595 5594 5594 5594 5594 5593 5593 5591 5590 5587 5584 5583
5530 5531 5533 5534 5536 5538 5541 5543 5546 5548 5551 5554 5557 5560 5563 5566 5568 5570 5573 5575 5577 5579 5580 5581 5582 5583 5584 5584 5584 5585 5584 5584 5582 5582 5583 5582 5581 5581 5579 5578 5576 5573 5571
5521 5522 5523 5524 5526 5528 5530 5532 5534 5537 5540 5542 5545 5547 5550 5553 5556 5558 5561 5563 5565 5567 5568 5569 5571 5572 5573 5572 5573 5573 5573 5572 5571 5570 5570 5570 5570 5569 5568 5566 5564 5562 5560
5513 5514 5514 5515 5516 5518 5520 5522 5524 5526 5529 5531 5533 5535 5538 5541 5543 5546 5548 5550 5553 5555 5557 5558 5559 5560 5561 5561 5562 5562 5562 5561 5560 5559 5559 5559 5558 5557 5556 5555 5553 5551 5549
5505 5505 5506 5506 5507 5508 5509 5511 5513 5516 5519 5521 5523 5524 5526 5529 5531 5534 5536 5539 5541 5544 5545 5547 5548 5549 5550 5550 5551 5551 5551 5551 5550 5550 5549 5549 5548 5547 5546 5544 5542 5540 5538
5497 5497 5497 5498 5498 5499 5500 5502 5503 5506 5508 5510 5512 5513 5515 5517 5520 5522 5525 5528 5530 5533 5535 5536 5537 5538 5539 5540 5540 5540 5541 5541 5541 5540 5540 5539 5538 5537 5536 5534 5532 5530 5528
5489 5489 5489 5489 5490 5490 5491 5493 5494 5496 5498 5500 5502 5504 5505 5507 5510 5512 5515 5517 5520 5522 5524 5526 5527 5528 5529 5530 5530 5530 5531 5531 5531 5531 5530 5529 5528 5527 5526 5524 5522 5520 5518
5482 5482 5482 5482 5482 5482 5483 5484 5485 5487 5489 5491 5493 5495 5496 5498 5500 5503 5505 5508 5510 5512 5514 5515 5517 5518 5519 5520 5521 5521 5522 5522 5521 5521 5520 5520 5519 5517 5516 5515 5513 5511 5509
5475 5475 5475 5475 5475 5475 5476 5476 5477 5479 5480 5482 5484 5486 5488 5490 5492 5493 5496 5498 5500 5503 5505 5506 5508 5509 5510 5511 5511 5512 5512 5512 5512 5512 5511 5510 5509 5508 5507 5505 5504 5502 5500
5468 5468 5468 5468 5468 5468 5468 5469 5469 5471 5472 5473 5475 5477 5479 5481 5483 5485 5487 5489 5491 5494 5496 5497 5498 5500 5501 5501 5502 5502 5502 5503 5502 5502 5501 5501 5500 5499 5497 5496 5495 5493 5492
5461 5461 5461 5460 5461 5461 5461 5462 5463 5463 5464 5466 5467 5469 5471 5473 5475 5477 5479 5481 5483 5485 5486 5488 5489 5491 5492 5492 5493 5493 5493 5493 5493 5493 5492 5491 5490 5490 5489 5487 5486 5485 5484
5454 5454 5454 5454 5454 5454 5455 5456 5456 5457 5458 5459 5460 5462 5463 5465 5467 5469 5471 5473 5474 5476 5478 5480 5481 5482 5483 5483 5483 5484 5484 5484 5484 5484 5483 5483 5482 5482 5481 5480 5479 5477 5476
5448 5448 5447 5447 5447 5448 5448 5449 5450 5450 5451 5452 5453 5454 5456 5458 5459 5461 5463 5465 5467 5468 5470 5471 5472 5473 5474 5474 5474 5475 5475 5476 5476 5475 5475 5475 5474 5474 5473 5472 5472 5470 5469
5442 5442 5442 5441 5442 5442 5442 5443 5443 5443 5444 5445 5447 5448 5449 5451 5452 5454 5455 5457 5458 5460 5462 5463 5464 5465 5465 5465 5466 5467 5467 5467 5467 5467 5467 5467 5467 5467 5466 5466 5465 5464 5463
5437 5436 5436 5436 5436 5436 5436 5437 5437 5437 5438 5439 5440 5441 5443 5444 5446 5447 5448 5449 5451 5452 5453 5455 5456 5457 5457 5458 5458 5459 5459 5459 5459 5460 5460 5460 5460 5460 5460 5460 5459 5459 5458
5431 5430 5430 5430 5430 5430 5430 5431 5431 5432 5433 5434 5435 5436 5437 5438 5439 5440 5441 5442 5443 5445 5446 5447 5448 5449 5449 5450 5450 5451 5452 5452 5452 5453 5453 5454 5454 5454 5454 5454 5454 5453 5453
5425 5424 5424 5424 5424 5424 5424 5425 5425 5426 5427 5428 5429 5430 5431 5432 5433 5434 5435 5435 5437 5438 5439 5440 5440 5441 5442 5443 5443 5444 5445 5445 5446 5446 5447 5448 5449 5449 5449 5449 5448 5448 5448
5419 5419 5419 5419 5419 5419 5419 5419 5419 5420 5421 5422 5423 5424 5425 5426 5426 5427 5428 5429 5430 5431 5432 5433 5433 5434 5435 5436 5437 5438 5439 5439 5440 5441 5442 5443 5443 5444 5444 5444 5443 5443 5443
5414 5414 5414 5414 5413 5413 5413 5413 5414 5414 5415 5416 5417 5418 5419 5420 5420 5421 5422 5422 5423 5424 5425 5426 5427 5428 5429 5430 5431 5432 5433 5434 5435 5436 5437 5437 5438 5439 5439 5439 5439 5439 5439
5410 5409 5409 5408 5408 5408 5408 5408 5408 5409 5410 5411 5412 5413 5413 5414 5415 5415 5416 5417 5417 5418 5419 5420 5421 5422 5423 5424 5426 5426 5427 5428 5429 5431 5432 5433 5433 5434 5434 5435 5435 5435 5435